DELTA 1 DEB, 10833

Orbit data source: Space-Track

DELTA 1 DEB, 10833 is space debris in SSO originally from a launch on Thu, 29 Jul 1976 UTC launched from the Air Force Western Test Range (AFWTR). Debris objects in space refer to the collection of defunct objects orbiting the Earth. Examples of debris include non-operational satellites, rocket bodies, and fragments generated from explosions, collisions, or faulty payload assembly.

Loading next visibility...
Identifier
10833, 1976-077CD
Orbit
SSO
Country
Flag of USUS
Related business
Manufacturer
Unknown
Mission
Spacecraft
Bus & Motor
Unknown
Mass
Unknown
Launch date (UTC)
1976-07-29 (50 years ago)
Launch vehicle
Unknown
Launch site
Air Force Western Test Range (AFWTR)
Object type
Payload
Rocket body
Debris
Shape & HBR
Unknown shape, 0.2 m
Radar Cross Section
Medium (>0.1 m² and <1 m²)

Expand to show TLE details & history
Last TLE update: 11 hours ago

TLE from 11 hours ago
0 DELTA 1 DEB
1 10833U 76077CD  26255.71517800  .00000106  00000-0  11810-2 0  9991
2 10833 102.1179 227.8601 0117333 349.0004 186.5008 12.34801763253218
Epoch: 2026-09-12T17:09Z
TLE epoch observation values (Epoch: 2026-09-12T17:09:51.379Z)
Latitude
4.46687°
Longitude
159.63226°
Altitude
1,622.991 km
Speed
7.019 km/s
True Right ascension
03h 15m 15s
True Declination
4° 26' 35"
Sunlit
Object was in daylight at epoch
Visualization orbit readout
Latitude
Unknown
Longitude
Unknown
Altitude
Unknown
Speed
Unknown
Apparent Right ascension
Unknown
Apparent Declination
Unknown
Sunlit
N/A
Visualization observer readout
Local Sidereal Time
20:48:56
Azimuth
Unknown
Elevation
Unknown
Doppler factor
Unknown
Orbital elements
Apogee altitude
1,619.05 km
Perigee altitude
1,433.559 km
Semi-major axis
7,904.441 km
Eccentricity
0.01173
Inclination
102.1179°
RAAN
227.8601°
Arg. of periapsis
349.0004°
True anomaly
186.35076°
Mean anomaly
186.5008°
Eccentric anomaly
186.42556°
Mean motion
3.08842 °/min
Orbital period
116.56 mins
BSTAR
0.001181
Loading maneuver chart data...
Computing Atmospheric mass density...
Loading historical data...
Loading historical data...
Loading historical data...
Loading historical data...
Loading historical data...
Loading historical data...
Loading historical data...

Documentation

Showing up to 5 results
|